FW6618 Weather Reports


Display with metric or nautical units.
time (UTC)temp
F
wind
direction
speed
MPH
gust
MPH
rain 1hr
in
rain 24hr
in
rain mn
in
humidity
%
barometer
mb
20260505201018 77 322 3.0 10.0 0.00 0.02 0.02 45 1004.9
20260505200515 77 285 4.0 13.0 0.00 0.02 0.02 44 1004.8
20260505200043 78 304 3.0 13.0 0.00 0.02 0.02 44 1005.0
20260505195520 78 202 3.0 15.0 0.00 0.02 0.02 42 1004.9
20260505195018 78 156 4.0 15.0 0.00 0.02 0.02 43 1004.9
20260505194532 79 177 4.0 15.0 0.00 0.02 0.02 40 1005.0
20260505194019 79 150 4.0 15.0 0.00 0.02 0.02 42 1005.0
20260505193519 79 223 3.0 17.0 0.00 0.02 0.02 41 1005.0
20260505193035 79 141 5.0 17.0 0.00 0.02 0.02 41 1005.2
20260505192519 79 207 4.0 14.0 0.00 0.02 0.02 42 1005.1
20260505192019 79 295 3.0 12.0 0.00 0.02 0.02 41 1005.1
20260505191537 79 173 3.0 12.0 0.00 0.02 0.02 42 1005.3
20260505191021 79 242 3.0 13.0 0.00 0.02 0.02 40 1005.2
20260505190518 79 352 4.0 13.0 0.00 0.02 0.02 41 1005.3
20260505190031 80 9 4.0 21.0 0.00 0.02 0.02 38 1005.3
20260505185519 79 245 5.0 21.0 0.00 0.02 0.02 39 1005.3
20260505185022 80 195 5.0 21.0 0.00 0.02 0.02 39 1005.4
20260505184537 81 153 5.0 12.0 0.00 0.02 0.02 39 1005.4
20260505184017 81 133 4.0 12.0 0.00 0.02 0.02 40 1005.5
20260505183516 80 217 5.0 12.0 0.00 0.02 0.02 40 1005.4
20260505183050 80 210 4.0 10.0 0.00 0.02 0.02 41 1005.5
20260505182517 80 285 4.0 11.0 0.00 0.02 0.02 40 1005.3
20260505182018 81 270 3.0 13.0 0.00 0.02 0.02 39 1005.4
20260505181535 80 60 6.0 13.0 0.00 0.02 0.02 44 1005.7
20260505181020 79 202 4.0 12.0 0.00 0.02 0.02 41 1005.5
20260505180518 79 130 5.0 14.0 0.00 0.02 0.02 40 1005.8
20260505180041 79 138 4.0 17.0 0.00 0.02 0.02 42 1005.6
20260505175516 78 330 3.0 17.0 0.00 0.02 0.02 41 1006.1
20260505175017 78 250 4.0 11.0 0.00 0.02 0.02 40 1006.3
20260505174545 79 160 4.0 12.0 0.00 0.02 0.02 41 1006.4
20260505174019 80 264 3.0 12.0 0.00 0.02 0.02 41 1006.3
20260505173522 80 134 3.0 16.0 0.00 0.02 0.02 41 1006.3
20260505173034 81 339 4.0 16.0 0.00 0.02 0.02 39 1006.4
20260505172516 80 250 4.0 9.0 0.00 0.02 0.02 39 1006.3
20260505172018 80 249 4.0 11.0 0.00 0.02 0.02 39 1006.5
20260505171538 80 318 4.0 14.0 0.00 0.02 0.02 42 1006.5
20260505171015 80 246 4.0 17.0 0.00 0.02 0.02 42 1006.6
20260505170517 80 221 3.0 17.0 0.00 0.02 0.02 42 1006.8
20260505170036 79 347 3.0 14.0 0.00 0.02 0.02 42 1006.9
20260505165517 79 165 4.0 12.0 0.00 0.02 0.02 42 1006.9
20260505165019 79 128 4.0 12.0 0.00 0.02 0.02 42 1007.0
20260505164535 79 234 4.0 10.0 0.00 0.02 0.02 43 1007.2
20260505164019 79 170 4.0 11.0 0.00 0.02 0.02 47 1007.1
20260505163520 78 304 3.0 18.0 0.00 0.02 0.02 45 1007.1
20260505163038 77 123 5.0 18.0 0.00 0.02 0.02 46 1007.4
20260505162518 77 39 6.0 11.0 0.00 0.02 0.02 46 1007.5
20260505162020 77 221 5.0 13.0 0.00 0.02 0.02 46 1007.5
20260505161537 76 254 3.0 13.0 0.00 0.02 0.02 48 1007.5
20260505161020 76 169 5.0 13.0 0.00 0.02 0.02 47 1007.5
20260505160522 76 201 3.0 12.0 0.00 0.02 0.02 48 1007.6
20260505153036 73 255 2.0 8.0 0.00 0.02 0.02 55 1008.2
20260505152520 72 158 4.0 14.0 0.00 0.02 0.02 55 1008.2
20260505152022 71 153 5.0 14.0 0.00 0.02 0.02 53 1008.3
20260505151538 71 247 3.0 9.0 0.00 0.02 0.02 54 1008.3
20260505151018 71 96 3.0 9.0 0.00 0.02 0.02 54 1008.5
20260505150525 71 220 3.0 9.0 0.00 0.02 0.02 54 1008.2
20260505140520 66 96 1.0 4.0 0.00 0.02 0.02 64 1009.2
20260505125022 58 101 0.0 2.0 0.00 0.02 0.02 85 1009.5
20260505124537 58 205 0.0 2.0 0.00 0.02 0.02 84 1009.5
20260505124021 58 244 1.0 2.0 0.00 0.02 0.02 83 1009.5
20260505123524 58 89 1.0 2.0 0.00 0.02 0.02 81 1009.7
20260505123037 58 169 0.0 3.0 0.00 0.02 0.02 81 1009.5
20260505122524 57 228 1.0 3.0 0.00 0.02 0.02 82 1009.6
20260505122019 57 153 2.0 4.0 0.00 0.02 0.02 88 1009.6
20260505121541 56 107 2.0 4.0 0.00 0.02 0.02 87 1009.5
20260505121019 55 37 1.0 4.0 0.00 0.02 0.02 90 1009.5
20260505120522 55 199 0.0 2.0 0.00 0.02 0.02 94 1009.7
20260505120046 54 345 0.0 1.0 0.00 0.02 0.02 94 1009.5
20260505115523 54 0 0.0 1.0 0.02 0.02 0.02 94 1009.4
20260505115025 53 0 0.0 1.0 0.02 0.02 0.02 94 1009.3
20260505114544 53 343 0.0 1.0 0.02 0.02 0.02 93 1009.4
20260505114021 53 330 1.0 1.0 0.02 0.02 0.02 93 1009.3
20260505113519 52 330 0.0 1.0 0.02 0.02 0.02 92 1009.4
20260505113035 52 331 0.0 2.0 0.02 0.02 0.02 92 1009.5
20260505112518 52 329 0.0 2.0 0.02 0.02 0.02 91 1009.7
20260505112019 52 327 1.0 2.0 0.02 0.02 0.02 90 1009.7
20260505111539 53 3 0.0 2.0 0.02 0.02 0.02 88 1009.8
20260505111022 53 41 0.0 4.0 0.02 0.02 0.02 86 1009.9
20260505110518 54 37 1.0 4.0 0.02 0.02 0.02 84 1010.3
20260505102022 53 49 2.0 3.0 0.00 0.00 0.00 77 1009.2
20260505101544 53 302 0.0 2.0 0.00 0.00 0.00 76 1009.3
20260505101018 53 225 0.0 3.0 0.00 0.00 0.00 76 1009.2
20260505100520 53 140 2.0 3.0 0.00 0.00 0.00 75 1009.0
20260505100038 54 77 2.0 3.0 0.00 0.00 0.00 74 1008.9
20260505095520 54 163 0.0 4.0 0.00 0.00 0.00 74 1008.9
20260505095020 55 188 2.0 6.0 0.00 0.00 0.00 73 1008.9
20260505094540 55 300 1.0 6.0 0.00 0.00 0.00 71 1008.9
20260505094020 54 112 1.0 3.0 0.00 0.00 0.00 73 1008.8
20260505093519 55 283 1.0 3.0 0.00 0.00 0.00 71 1008.9
20260505093037 55 233 0.0 8.0 0.00 0.00 0.00 72 1008.7
20260505092522 55 321 1.0 8.0 0.00 0.00 0.00 71 1008.8
20260505092020 55 290 3.0 8.0 0.00 0.00 0.00 70 1008.8
20260505091536 54 0 0.0 3.0 0.00 0.00 0.00 73 1008.9
20260505091018 54 158 1.0 4.0 0.00 0.00 0.00 73 1008.9
20260505090520 54 92 2.0 4.0 0.00 0.00 0.00 71 1008.9
20260505090034 55 247 1.0 3.0 0.00 0.00 0.00 72 1008.9
20260505085524 54 76 1.0 3.0 0.00 0.00 0.00 71 1009.0
20260505085019 55 201 1.0 3.0 0.00 0.00 0.00 71 1009.1
20260505084541 55 243 1.0 2.0 0.00 0.00 0.00 70 1009.1
20260505084019 55 51 0.0 2.0 0.00 0.00 0.00 70 1009.0
20260505083520 55 25 1.0 2.0 0.00 0.00 0.00 70 1009.2
20260505083037 55 76 1.0 2.0 0.00 0.00 0.00 71 1009.0
20260505082521 55 23 1.0 3.0 0.00 0.00 0.00 70 1009.1
20260505082019 56 39 0.0 3.0 0.00 0.00 0.00 67 1009.1
20260505081537 55 39 1.0 3.0 0.00 0.00 0.00 68 1009.1
20260505081024 55 32 1.0 2.0 0.00 0.00 0.00 70 1009.1
20260505080517 55 340 1.0 2.0 0.00 0.00 0.00 67 1009.2
20260505080039 56 53 1.0 2.0 0.00 0.00 0.00 68 1009.1
20260505075520 56 158 1.0 2.0 0.00 0.00 0.00 67 1009.2
20260505075022 56 81 0.0 3.0 0.00 0.00 0.00 68 1009.0
20260505074539 55 141 1.0 3.0 0.00 0.00 0.00 68 1009.1
20260505074020 55 35 2.0 3.0 0.00 0.00 0.00 67 1009.0
20260505073523 55 49 1.0 4.0 0.00 0.00 0.00 70 1009.0
20260505073039 55 4 1.0 4.0 0.00 0.00 0.00 68 1009.1
20260505072519 56 345 0.0 5.0 0.00 0.00 0.00 66 1009.2
20260505072020 56 352 2.0 5.0 0.00 0.00 0.00 64 1009.1
20260505071549 56 55 1.0 2.0 0.00 0.00 0.00 65 1009.0
20260505071021 55 244 0.0 2.0 0.00 0.00 0.00 70 1009.1
20260505070524 55 51 1.0 2.0 0.00 0.00 0.00 69 1009.1
20260505070033 55 39 0.0 2.0 0.00 0.00 0.00 69 1009.1
20260505065520 56 0 0.0 2.0 0.00 0.00 0.00 69 1009.2
20260505065018 56 218 0.0 3.0 0.00 0.00 0.00 67 1009.3
20260505064538 57 217 1.0 4.0 0.00 0.00 0.00 65 1009.2
20260505064018 57 317 1.0 4.0 0.00 0.00 0.00 63 1009.2
20260505063519 57 37 2.0 4.0 0.00 0.00 0.00 64 1009.2
20260505063032 56 0 0.0 3.0 0.00 0.00 0.00 66 1009.1
20260505062518 57 330 0.0 3.0 0.00 0.00 0.00 65 1009.3
20260505062019 57 330 1.0 3.0 0.00 0.00 0.00 64 1009.2
20260505061535 57 2 1.0 5.0 0.00 0.00 0.00 63 1009.1
20260505061023 58 18 1.0 5.0 0.00 0.00 0.00 65 1009.1
20260505060520 57 288 1.0 5.0 0.00 0.00 0.00 66 1009.2
20260505060045 57 319 1.0 2.0 0.00 0.00 0.00 66 1009.2
20260505055520 57 39 1.0 3.0 0.00 0.00 0.00 63 1009.2
20260505055020 57 235 1.0 4.0 0.00 0.00 0.00 65 1009.2
20260505054538 56 274 1.0 4.0 0.00 0.00 0.00 65 1009.3
20260505054018 56 328 1.0 4.0 0.00 0.00 0.00 65 1009.3
20260505053517 56 107 0.0 6.0 0.00 0.00 0.00 67 1009.2
20260505053035 55 107 2.0 6.0 0.00 0.00 0.00 69 1009.2
20260505052521 54 355 1.0 3.0 0.00 0.00 0.00 71 1009.1
20260505052021 54 23 1.0 3.0 0.00 0.00 0.00 70 1009.2
20260505051539 54 37 1.0 2.0 0.00 0.00 0.00 69 1009.3
20260505051022 54 54 1.0 3.0 0.00 0.00 0.00 70 1009.1
20260505050520 54 105 1.0 3.0 0.00 0.00 0.00 69 1009.3
20260505041539 53 359 0.0 4.0 0.00 0.00 0.00 71 1009.3
20260505041016 53 3 1.0 4.0 0.00 0.00 0.00 72 1009.4
20260505040520 53 15 1.0 2.0 0.00 0.00 0.00 72 1009.3
20260505040038 53 340 1.0 2.0 0.00 0.00 0.00 72 1009.3
20260505035518 53 350 0.0 2.0 0.00 0.00 0.00 72 1009.3
20260505035018 53 1 1.0 4.0 0.00 0.00 0.00 70 1009.3
20260505034534 54 23 1.0 4.0 0.00 0.00 0.00 71 1009.3
20260505034020 53 1 0.0 4.0 0.00 0.00 0.00 69 1009.3
20260505033520 53 0 0.0 2.0 0.00 0.00 0.00 72 1009.3
20260505033037 53 29 0.0 2.0 0.00 0.00 0.00 72 1009.2
20260505032521 53 6 0.0 2.0 0.00 0.00 0.00 73 1009.2
20260505032019 52 23 0.0 2.0 0.00 0.00 0.00 73 1009.2
20260505031537 52 0 0.0 0.0 0.00 0.00 0.00 74 1009.3
20260505031016 52 0 0.0 0.0 0.00 0.00 0.00 73 1009.2
20260505030520 53 0 0.0 0.0 0.00 0.00 0.00 73 1009.1
20260505030039 52 0 0.0 0.0 0.00 0.00 0.00 73 1009.3
20260505025522 52 0 0.0 0.0 0.00 0.00 0.00 74 1009.2
20260505025020 52 0 0.0 0.0 0.00 0.00 0.00 73 1009.3
20260505024536 53 0 0.0 0.0 0.00 0.00 0.00 73 1009.3
20260505024017 53 0 0.0 0.0 0.00 0.00 0.00 73 1009.3
20260505023519 53 0 0.0 0.0 0.00 0.00 0.00 72 1009.3
20260505023035 53 0 0.0 0.0 0.00 0.00 0.00 73 1009.4
20260505022518 53 0 0.0 0.0 0.00 0.00 0.00 73 1009.3
20260505022022 53 0 0.0 0.0 0.00 0.00 0.00 73 1009.4
20260505021534 53 0 0.0 0.0 0.00 0.00 0.00 72 1009.4
20260505021018 53 0 0.0 0.0 0.00 0.00 0.00 71 1009.4
20260505020519 53 0 0.0 0.0 0.00 0.00 0.00 70 1009.3
20260505020037 53 0 0.0 0.0 0.00 0.00 0.00 72 1009.3
20260505015520 53 0 0.0 0.0 0.00 0.00 0.00 72 1009.2
20260505015024 53 0 0.0 0.0 0.00 0.00 0.00 73 1009.1
20260505014537 53 0 0.0 0.0 0.00 0.00 0.00 72 1009.0
20260505014024 53 0 0.0 0.0 0.00 0.00 0.00 72 1009.0
20260505013518 53 0 0.0 0.0 0.00 0.00 0.00 72 1009.0
20260505013056 53 0 0.0 0.0 0.00 0.00 0.00 71 1009.0
20260505012518 54 0 0.0 0.0 0.00 0.00 0.00 71 1008.9
20260505012018 54 0 0.0 0.0 0.00 0.00 0.00 70 1009.0
20260505011535 54 0 0.0 0.0 0.00 0.00 0.00 70 1008.9
20260505011017 54 0 0.0 0.0 0.00 0.00 0.00 69 1008.9
20260505010520 54 0 0.0 0.0 0.00 0.00 0.00 69 1008.9
20260505010036 54 0 0.0 0.0 0.00 0.00 0.00 69 1008.9
20260505005520 55 0 0.0 0.0 0.00 0.00 0.00 69 1008.8
20260505005017 55 0 0.0 0.0 0.00 0.00 0.00 69 1008.7
20260505004538 55 0 0.0 0.0 0.00 0.00 0.00 68 1008.7
20260505004016 55 0 0.0 0.0 0.00 0.00 0.00 69 1008.8
20260505003519 55 0 0.0 0.0 0.00 0.00 0.00 68 1008.8
20260505003034 56 0 0.0 0.0 0.00 0.00 0.00 68 1008.8
20260505002518 56 0 0.0 0.0 0.00 0.00 0.00 68 1008.5
20260505002019 56 0 0.0 0.0 0.00 0.00 0.00 68 1008.4
20260505001538 56 0 0.0 2.0 0.00 0.00 0.00 67 1008.3
20260505001020 57 0 0.0 2.0 0.00 0.00 0.00 67 1008.2
20260505000516 58 358 1.0 2.0 0.00 0.00 0.00 66 1008.2
20260505000050 58 347 0.0 1.0 0.00 0.00 0.00 64 1008.1
20260504235520 59 0 0.0 1.0 0.00 0.00 0.00 63 1008.2
20260504235020 59 342 0.0 2.0 0.00 0.00 0.00 62 1008.1
20260504234536 60 75 1.0 2.0 0.00 0.00 0.00 59 1008.0
20260504234016 61 82 1.0 2.0 0.00 0.00 0.00 58 1008.1
20260504233518 61 325 0.0 1.0 0.00 0.00 0.00 58 1007.8
20260504233036 62 326 0.0 2.0 0.00 0.00 0.00 54 1007.9
20260504232517 64 326 1.0 2.0 0.00 0.00 0.00 53 1007.6
20260504232018 64 0 1.0 5.0 0.00 0.00 0.00 49 1007.6
20260504231532 65 306 0.0 5.0 0.00 0.00 0.00 46 1007.6
20260504231016 65 0 1.0 5.0 0.00 0.00 0.00 46 1007.5
20260504230519 66 0 0.0 2.0 0.00 0.00 0.00 44 1007.5
20260504230032 66 248 0.0 3.0 0.00 0.00 0.00 43 1007.5
20260504225516 67 248 1.0 4.0 0.00 0.00 0.00 42 1007.4
20260504225017 67 210 1.0 6.0 0.00 0.00 0.00 42 1007.4
20260504224536 67 252 2.0 7.0 0.00 0.00 0.00 42 1007.4
20260504224019 67 234 2.0 7.0 0.00 0.00 0.00 42 1007.3
20260504223518 68 211 2.0 12.0 0.00 0.00 0.00 41 1007.5
20260504223042 68 336 3.0 12.0 0.00 0.00 0.00 40 1007.2
20260504222521 69 323 3.0 7.0 0.00 0.00 0.00 40 1007.2
20260504222021 68 327 1.0 7.0 0.00 0.00 0.00 41 1007.2
20260504221535 68 267 2.0 7.0 0.00 0.00 0.00 40 1007.3
20260504221019 68 274 2.0 7.0 0.00 0.00 0.00 41 1007.2
20260504220518 69 193 3.0 7.0 0.00 0.00 0.00 40 1007.2
20260504220041 69 124 2.0 9.0 0.00 0.00 0.00 40 1007.2
20260504215519 69 168 2.0 17.0 0.00 0.00 0.00 41 1007.3
20260504215017 69 300 3.0 17.0 0.00 0.00 0.00 40 1007.3
20260504214542 69 206 3.0 10.0 0.00 0.00 0.00 39 1007.3
20260504214019 69 276 3.0 10.0 0.00 0.00 0.00 42 1007.5
20260504213516 69 51 3.0 12.0 0.00 0.00 0.00 41 1007.3
20260504213039 69 175 4.0 12.0 0.00 0.00 0.00 40 1007.5
20260504212520 69 248 2.0 10.0 0.00 0.00 0.00 43 1007.3
20260504212024 69 176 3.0 10.0 0.00 0.00 0.00 40 1007.4
20260504211536 69 207 2.0 6.0 0.00 0.00 0.00 42 1007.5
20260504211017 70 278 3.0 9.0 0.00 0.00 0.00 41 1007.4
20260504210517 69 245 2.0 9.0 0.00 0.00 0.00 43 1007.5
20260504210037 69 168 3.0 14.0 0.00 0.00 0.00 40 1007.4
20260504205516 69 184 3.0 14.0 0.00 0.00 0.00 42 1007.3
20260504205017 69 203 5.0 14.0 0.00 0.00 0.00 40 1007.6
20260504204534 68 291 2.0 11.0 0.00 0.00 0.00 42 1007.5
20260504204020 67 256 3.0 6.0 0.00 0.00 0.00 42 1007.6
20260504203520 67 173 2.0 14.0 0.00 0.00 0.00 45 1007.6
20260504203036 66 194 4.0 14.0 0.00 0.00 0.00 43 1007.6
20260504202518 67 173 3.0 11.0 0.00 0.00 0.00 44 1008.0
20260504202019 67 198 5.0 12.0 0.00 0.00 0.00 42 1007.9
20260504201548 67 213 3.0 12.0 0.00 0.00 0.00 44 1008.0